This demonstration page uses our WeatherBlox Daily Observations layout. Learn more.

Left ArrowRight Arrow

Hourly Observations for April 9, 2019

Temp ( °F °C ) Dew Point ( °F °C ) Humidity (%) Winds ( mph kmh ) Pressure ( in mb ) Visibility ( mi km ) Precip ( " mm )
12:53 am 00:53 Clear 62 16.7 32 0 32 32 SE 12 19 29.88 1012 10 16 0.00 0.00
1:53 am 01:53 Clear 63 17.2 33 0.6 33 33 SE 9 15 29.86 1011 10 16 0.00 0.00
2:53 am 02:53 Clear 58 14.4 34 1.1 41 41 SE 9 15 29.85 1011 10 16 0.00 0.00
3:53 am 03:53 Clear 56 13.3 34 1.1 44 44 SSE 8 13 29.84 1011 10 16 0.00 0.00
4:53 am 04:53 Clear 52 11.1 34 1.1 50 50 SE 7 11 29.83 1010 10 16 0.00 0.00
5:53 am 05:53 Clear 48 8.9 33 0.6 56 56 NNE 5 7 29.84 1010 10 16 0.00 0.00
6:53 am 06:53 Clear 47 8.3 33 0.6 59 59 NE 3 6 29.84 1011 10 16 0.00 0.00
7:53 am 07:53 Sunny 46 7.8 33 0.6 61 61 NNE 3 6 29.87 1011 10 16 0.00 0.00
8:53 am 08:53 Sunny 57 13.9 35 1.7 44 44 Calm 29.87 1011 8 13 0.00 0.00
9:53 am 09:53 Sunny 71 21.7 29 -1.7 21 21 WSW 3 6 29.85 1011 10 16 0.00 0.00
10:53 am 10:53 Sunny 78 25.6 23 -5 13 13 W 5 7 29.84 1011 10 16 0.00 0.00
11:53 am 11:53 Sunny 83 28.3 23 -5 11 11 WSW 10 17 29.83 1010 10 16 0.00 0.00
12:53 pm 12:53 Sunny 88 31.1 23 -5 9 9 WSW 12 19 29.79 1009 10 16 0.00 0.00
1:53 pm 13:53 Sunny 93 33.9 21 -6.1 7 7 WSW 12 19 29.74 1007 10 16 0.00 0.00
2:53 pm 14:53 Sunny 94 34.4 20 -6.7 7 7 W 8 13 29.71 1006 10 16 0.00 0.00
3:51 pm 15:51 Sunny 97 36 16 -9 5 5 WSW 21 33 29.54 1000 10 16 0.00 0.00
3:53 pm 15:53 Sunny 96 35.6 15 -9.4 5 5 WSW 16 26 29.67 1005 10 16 0.00 0.00
4:53 pm 16:53 Sunny 96 35.6 15 -9.4 5 5 W 16 26 29.64 1004 10 16 0.00 0.00
5:53 pm 17:53 Sunny 95 35 14 -10 5 5 WSW 20 31 29.62 1003 10 16 0.00 0.00
6:53 pm 18:53 Sunny 94 34.4 15 -9.4 5 5 WSW 13 20 29.62 1003 10 16 0.00 0.00
7:53 pm 19:53 Sunny 89 31.7 15 -9.4 6 6 W 12 19 29.62 1003 10 16 0.00 0.00
8:53 pm 20:53 Clear 80 26.7 19 -7.2 10 10 W 10 17 29.63 1003 10 16 0.00 0.00
9:53 pm 21:53 Clear 74 23.3 21 -6.1 14 14 W 7 11 29.63 1003 10 16 0.00 0.00
10:53 pm 22:53 Clear 71 21.7 22 -5.6 16 16 WSW 7 11 29.63 1003 10 16 0.00 0.00
11:53 pm 23:53 Clear 69 20.6 23 -5 17 17 SW 7 11 29.61 1003 10 16 0.00 0.00

Powered by AerisWeather